BNS11A EPSC-EYVI

Flight info

Callsign BNS11A
Flight time 1h 41m
Altitude 20000
Route DCT SCE DCT BYZ DCT MRA DCT SUW DCT VNO DCT
Aircraft YS11/M-SGHTWY/L

Departure

Time 2026-04-21 15:47
Airport Solidarity Szczecin–Goleniów Airport (EPSC)

Arrival

Time 2026-04-21 17:28
Airport Vilnius International Airport (EYVI)
Time Latitude Longitude Altitude Speed Heading
2026-04-21 15:32 53.59277 14.89348 117 ft 0 kts 43°
2026-04-21 15:42 53.59278 14.89349 130 ft 2 kts 31°
2026-04-21 15:42 53.59297 14.89339 130 ft 7 kts 307°
2026-04-21 15:42 53.59257 14.89232 130 ft 18 kts 216°
2026-04-21 15:43 53.59167 14.89299 131 ft 15 kts 130°
2026-04-21 15:43 53.59092 14.89443 132 ft 18 kts 131°
2026-04-21 15:43 53.59005 14.89611 132 ft 20 kts 130°
2026-04-21 15:43 53.58913 14.89793 131 ft 21 kts 132°
2026-04-21 15:44 53.58816 14.89978 130 ft 22 kts 130°
2026-04-21 15:44 53.58710 14.90185 130 ft 24 kts 131°
2026-04-21 15:44 53.58596 14.90399 130 ft 24 kts 130°
2026-04-21 15:44 53.58495 14.90601 130 ft 24 kts 130°
2026-04-21 15:45 53.58371 14.90838 130 ft 27 kts 131°
2026-04-21 15:45 53.58250 14.91074 130 ft 26 kts 131°
2026-04-21 15:45 53.58137 14.91297 130 ft 25 kts 131°
2026-04-21 15:45 53.58021 14.91517 130 ft 25 kts 132°
2026-04-21 15:46 53.57919 14.91703 131 ft 19 kts 132°
2026-04-21 15:46 53.57819 14.91715 131 ft 18 kts 222°
2026-04-21 15:46 53.57784 14.91563 132 ft 12 kts 302°
2026-04-21 15:46 53.58031 14.91083 134 ft 88 kts 311°
2026-04-21 15:47 53.58511 14.90166 158 ft 116 kts 311°
2026-04-21 15:47 53.59025 14.89103 507 ft 116 kts 315°
2026-04-21 15:47 53.59511 14.87997 981 ft 120 kts 314°
2026-04-21 15:47 53.60000 14.86775 1380 ft 133 kts 311°
2026-04-21 15:48 53.60551 14.85405 1821 ft 150 kts 312°
2026-04-21 15:48 53.61178 14.83882 2314 ft 166 kts 311°
2026-04-21 15:48 53.61877 14.82244 2780 ft 178 kts 313°
2026-04-21 15:48 53.62901 14.81114 3209 ft 180 kts 352°
2026-04-21 15:49 53.64136 14.81305 3613 ft 182 kts 18°
2026-04-21 15:49 53.65163 14.82485 4056 ft 183 kts 56°
2026-04-21 15:49 53.65551 14.84523 4519 ft 186 kts 83°
2026-04-21 15:49 53.65493 14.86715 4997 ft 189 kts 96°
2026-04-21 15:50 53.65278 14.88884 5457 ft 191 kts 99°
2026-04-21 15:50 53.64997 14.91111 5967 ft 192 kts 99°
2026-04-21 15:50 53.64705 14.93302 6478 ft 192 kts 99°
2026-04-21 15:50 53.64418 14.95481 6947 ft 193 kts 99°
2026-04-21 15:51 53.64133 14.97694 7397 ft 194 kts 98°
2026-04-21 15:51 53.63842 14.99913 7861 ft 194 kts 100°
2026-04-21 15:51 53.63454 15.02105 8354 ft 196 kts 105°
2026-04-21 15:51 53.63008 15.04278 8824 ft 196 kts 105°
2026-04-21 15:52 53.62615 15.06480 9318 ft 196 kts 102°
2026-04-21 15:52 53.62253 15.08696 9814 ft 196 kts 102°
2026-04-21 15:52 53.61999 15.10152 10145 ft 197 kts 103°
2026-04-21 15:52 53.61443 15.13096 10756 ft 197 kts 103°
2026-04-21 15:53 53.61041 15.15308 11208 ft 197 kts 102°
2026-04-21 15:53 53.60659 15.17526 11676 ft 197 kts 102°
2026-04-21 15:53 53.60266 15.19741 12140 ft 198 kts 103°
2026-04-21 15:53 53.59860 15.21951 12611 ft 198 kts 103°
2026-04-21 15:54 53.59454 15.24183 13099 ft 200 kts 102°
2026-04-21 15:54 53.59055 15.26431 13592 ft 202 kts 102°
2026-04-21 15:54 53.58650 15.28713 14092 ft 205 kts 103°
2026-04-21 15:54 53.58234 15.31019 14552 ft 207 kts 103°
2026-04-21 15:55 53.57815 15.33322 14999 ft 210 kts 103°
2026-04-21 15:55 53.57392 15.35681 15464 ft 212 kts 102°
2026-04-21 15:55 53.56963 15.38073 15919 ft 215 kts 102°
2026-04-21 15:55 53.56530 15.40488 16405 ft 217 kts 102°
2026-04-21 15:56 53.56089 15.42931 16890 ft 220 kts 102°
2026-04-21 15:56 53.55643 15.45403 17389 ft 222 kts 102°
2026-04-21 15:56 53.55195 15.47897 17885 ft 224 kts 102°
2026-04-21 15:56 53.54742 15.50414 18391 ft 225 kts 102°
2026-04-21 15:57 53.54287 15.52936 18856 ft 225 kts 102°
2026-04-21 15:57 53.53832 15.55458 19300 ft 226 kts 102°
2026-04-21 15:57 53.53378 15.57980 19746 ft 226 kts 102°
2026-04-21 15:57 53.52923 15.60509 20167 ft 228 kts 102°
2026-04-21 15:58 53.52462 15.63090 20277 ft 238 kts 102°
2026-04-21 15:58 53.51967 15.65834 20295 ft 245 kts 102°
2026-04-21 15:58 53.51472 15.68552 20289 ft 248 kts 102°
2026-04-21 15:58 53.50970 15.71329 20286 ft 249 kts 102°
2026-04-21 15:59 53.50471 15.74116 20282 ft 249 kts 102°
2026-04-21 15:59 53.49961 15.76941 20279 ft 250 kts 102°
2026-04-21 15:59 53.49463 15.79693 20265 ft 250 kts 102°
2026-04-21 15:59 53.48958 15.82484 20263 ft 250 kts 102°
2026-04-21 16:00 53.48455 15.85277 20268 ft 250 kts 102°
2026-04-21 16:00 53.47952 15.88065 20271 ft 250 kts 102°
2026-04-21 16:00 53.47448 15.90853 20268 ft 250 kts 102°
2026-04-21 16:00 53.46941 15.93652 20266 ft 250 kts 102°
2026-04-21 16:01 53.46437 15.96449 20263 ft 250 kts 102°
2026-04-21 16:01 53.45932 15.99242 20263 ft 250 kts 102°
2026-04-21 16:01 53.45429 16.02023 20273 ft 250 kts 102°
2026-04-21 16:01 53.45055 16.04855 20244 ft 246 kts 90°
2026-04-21 16:02 53.45309 16.07644 20284 ft 241 kts 71°
2026-04-21 16:02 53.45892 16.10268 20339 ft 241 kts 69°
2026-04-21 16:02 53.46412 16.12966 20238 ft 245 kts 72°
2026-04-21 16:02 53.46832 16.15717 20249 ft 243 kts 75°
2026-04-21 16:03 53.47190 16.18493 20255 ft 243 kts 76°
2026-04-21 16:03 53.47525 16.21283 20255 ft 243 kts 77°
2026-04-21 16:03 53.47847 16.24071 20255 ft 243 kts 77°
2026-04-21 16:03 53.48064 16.26890 20249 ft 245 kts 83°
2026-04-21 16:04 53.48165 16.29714 20258 ft 245 kts 83°
2026-04-21 16:04 53.48357 16.32543 20255 ft 244 kts 79°
2026-04-21 16:04 53.48585 16.35372 20256 ft 245 kts 81°
2026-04-21 16:04 53.48740 16.38221 20263 ft 245 kts 83°
2026-04-21 16:05 53.48894 16.41070 20259 ft 245 kts 81°
2026-04-21 16:05 53.49097 16.43911 20256 ft 245 kts 80°
2026-04-21 16:05 53.49291 16.46756 20251 ft 245 kts 81°
2026-04-21 16:05 53.49452 16.49611 20255 ft 245 kts 82°
2026-04-21 16:06 53.49625 16.52462 20257 ft 245 kts 81°
2026-04-21 16:06 53.49820 16.55313 20259 ft 246 kts 81°
2026-04-21 16:06 53.50004 16.58169 20256 ft 246 kts 81°
2026-04-21 16:06 53.50172 16.61026 20253 ft 246 kts 82°
2026-04-21 16:07 53.50351 16.63881 20251 ft 246 kts 81°
2026-04-21 16:07 53.50477 16.65773 20251 ft 246 kts 81°
2026-04-21 16:07 53.50662 16.68630 20250 ft 246 kts 81°
2026-04-21 16:07 53.50836 16.71491 20249 ft 246 kts 81°
2026-04-21 16:08 53.51198 16.77206 20254 ft 246 kts 81°
2026-04-21 16:08 53.51438 16.80996 20249 ft 246 kts 81°
2026-04-21 16:08 53.51614 16.83863 20250 ft 246 kts 81°
2026-04-21 16:09 53.51736 16.85798 20254 ft 246 kts 81°
2026-04-21 16:09 53.51920 16.88659 20250 ft 246 kts 81°
2026-04-21 16:09 53.52099 16.91490 20245 ft 246 kts 81°
2026-04-21 16:09 53.52277 16.94354 20245 ft 247 kts 81°
2026-04-21 16:10 53.52457 16.97220 20251 ft 247 kts 81°
2026-04-21 16:10 53.52640 17.00089 20252 ft 247 kts 81°
2026-04-21 16:10 53.52818 17.02959 20250 ft 247 kts 81°
2026-04-21 16:10 53.53000 17.05834 20249 ft 247 kts 81°
2026-04-21 16:11 53.53183 17.08696 20252 ft 247 kts 81°
2026-04-21 16:11 53.53364 17.11582 20249 ft 247 kts 81°
2026-04-21 16:11 53.53543 17.14460 20256 ft 247 kts 81°
2026-04-21 16:11 53.53725 17.17340 20247 ft 248 kts 81°
2026-04-21 16:12 53.53908 17.20220 20246 ft 248 kts 81°
2026-04-21 16:12 53.54089 17.23100 20246 ft 248 kts 81°
2026-04-21 16:12 53.54268 17.25987 20248 ft 248 kts 81°
2026-04-21 16:12 53.54449 17.28836 20245 ft 248 kts 81°
2026-04-21 16:13 53.54631 17.31717 20245 ft 248 kts 81°
2026-04-21 16:13 53.54813 17.34603 20245 ft 248 kts 81°
2026-04-21 16:13 53.54991 17.37490 20241 ft 248 kts 81°
2026-04-21 16:13 53.55175 17.40377 20240 ft 248 kts 81°
2026-04-21 16:14 53.55359 17.43265 20245 ft 248 kts 81°
2026-04-21 16:14 53.55539 17.46149 20250 ft 248 kts 81°
2026-04-21 16:14 53.55718 17.49043 20246 ft 249 kts 81°
2026-04-21 16:14 53.55902 17.51935 20245 ft 249 kts 81°
2026-04-21 16:15 53.56085 17.54827 20243 ft 249 kts 81°
2026-04-21 16:15 53.56266 17.57724 20239 ft 249 kts 81°
2026-04-21 16:15 53.56446 17.60618 20251 ft 249 kts 81°
2026-04-21 16:15 53.56630 17.63511 20244 ft 249 kts 81°
2026-04-21 16:16 53.56813 17.66405 20241 ft 249 kts 81°
2026-04-21 16:16 53.56994 17.69308 20241 ft 249 kts 81°
2026-04-21 16:16 53.57175 17.72208 20239 ft 249 kts 81°
2026-04-21 16:16 53.57359 17.75110 20233 ft 249 kts 81°
2026-04-21 16:17 53.57541 17.78005 20245 ft 249 kts 81°
2026-04-21 16:17 53.57722 17.80920 20234 ft 250 kts 81°
2026-04-21 16:17 53.57904 17.83822 20241 ft 250 kts 81°
2026-04-21 16:17 53.58089 17.86726 20244 ft 250 kts 81°
2026-04-21 16:18 53.58272 17.89633 20241 ft 250 kts 81°
2026-04-21 16:18 53.58453 17.92540 20239 ft 250 kts 81°
2026-04-21 16:18 53.58633 17.95410 20239 ft 250 kts 81°
2026-04-21 16:18 53.58818 17.98322 20237 ft 250 kts 81°
2026-04-21 16:19 53.59001 18.01236 20240 ft 250 kts 81°
2026-04-21 16:19 53.59181 18.04151 20238 ft 250 kts 81°
2026-04-21 16:19 53.59364 18.07061 20235 ft 250 kts 81°
2026-04-21 16:19 53.59549 18.09975 20237 ft 250 kts 81°
2026-04-21 16:20 53.59732 18.12892 20235 ft 250 kts 81°
2026-04-21 16:20 53.59913 18.15811 20231 ft 250 kts 81°
2026-04-21 16:20 53.60096 18.18726 20241 ft 251 kts 81°
2026-04-21 16:20 53.60282 18.21646 20240 ft 251 kts 81°
2026-04-21 16:21 53.60465 18.24566 20241 ft 251 kts 81°
2026-04-21 16:21 53.60645 18.27489 20235 ft 251 kts 81°
2026-04-21 16:21 53.60829 18.30411 20231 ft 251 kts 81°
2026-04-21 16:21 53.61015 18.33334 20232 ft 251 kts 81°
2026-04-21 16:22 53.61198 18.36258 20240 ft 251 kts 81°
2026-04-21 16:22 53.61379 18.39183 20241 ft 251 kts 81°
2026-04-21 16:22 53.61561 18.42068 20241 ft 251 kts 81°
2026-04-21 16:22 53.61746 18.44995 20239 ft 251 kts 81°
2026-04-21 16:23 53.61929 18.47919 20236 ft 251 kts 81°
2026-04-21 16:23 53.62111 18.50852 20235 ft 251 kts 81°
2026-04-21 16:23 53.62295 18.53781 20234 ft 251 kts 81°
2026-04-21 16:23 53.62481 18.56708 20240 ft 251 kts 81°
2026-04-21 16:24 53.62663 18.59639 20238 ft 252 kts 81°
2026-04-21 16:24 53.62845 18.62576 20236 ft 252 kts 81°
2026-04-21 16:24 53.63031 18.65503 20237 ft 252 kts 81°
2026-04-21 16:24 53.63215 18.68436 20236 ft 252 kts 81°
2026-04-21 16:25 53.63397 18.71368 20236 ft 252 kts 81°
2026-04-21 16:25 53.63581 18.74309 20235 ft 252 kts 81°
2026-04-21 16:25 53.63767 18.77242 20231 ft 252 kts 81°
2026-04-21 16:25 53.63950 18.80181 20231 ft 252 kts 81°
2026-04-21 16:26 53.64132 18.83115 20231 ft 252 kts 81°
2026-04-21 16:26 53.64319 18.86053 20234 ft 252 kts 81°
2026-04-21 16:26 53.64503 18.88990 20235 ft 252 kts 81°
2026-04-21 16:26 53.64685 18.91926 20231 ft 252 kts 81°
2026-04-21 16:27 53.64869 18.94862 20232 ft 252 kts 81°
2026-04-21 16:27 53.65054 18.97806 20230 ft 252 kts 81°
2026-04-21 16:27 53.65236 19.00746 20228 ft 252 kts 81°
2026-04-21 16:27 53.65419 19.03649 20228 ft 252 kts 81°
2026-04-21 16:28 53.65605 19.06591 20226 ft 253 kts 81°
2026-04-21 16:28 53.65789 19.09538 20225 ft 253 kts 81°
2026-04-21 16:28 53.65971 19.12485 20224 ft 253 kts 81°
2026-04-21 16:28 53.66156 19.15428 20220 ft 253 kts 81°
2026-04-21 16:29 53.66342 19.18375 20224 ft 253 kts 81°
2026-04-21 16:29 53.66526 19.21323 20220 ft 253 kts 81°
2026-04-21 16:29 53.66708 19.24271 20217 ft 253 kts 81°
2026-04-21 16:29 53.66894 19.27224 20216 ft 253 kts 81°
2026-04-21 16:30 53.67080 19.30171 20218 ft 253 kts 81°
2026-04-21 16:30 53.67264 19.33124 20214 ft 253 kts 81°
2026-04-21 16:30 53.67447 19.36073 20217 ft 253 kts 81°
2026-04-21 16:30 53.67632 19.39022 20213 ft 253 kts 81°
2026-04-21 16:31 53.67818 19.41971 20214 ft 253 kts 81°
2026-04-21 16:31 53.68001 19.44926 20212 ft 253 kts 81°
2026-04-21 16:31 53.68185 19.47876 20212 ft 253 kts 81°
2026-04-21 16:31 53.68369 19.50790 20207 ft 253 kts 81°
2026-04-21 16:32 53.68556 19.53776 20209 ft 253 kts 81°
2026-04-21 16:32 53.68736 19.56695 20205 ft 253 kts 81°
2026-04-21 16:32 53.68920 19.59633 20200 ft 253 kts 81°
2026-04-21 16:32 53.69106 19.62597 20195 ft 253 kts 81°
2026-04-21 16:33 53.69288 19.65549 20200 ft 253 kts 81°
2026-04-21 16:33 53.69474 19.68506 20199 ft 253 kts 81°
2026-04-21 16:33 53.69661 19.71452 20200 ft 253 kts 81°
2026-04-21 16:33 53.69845 19.74412 20200 ft 253 kts 81°
2026-04-21 16:34 53.70027 19.77370 20202 ft 253 kts 81°
2026-04-21 16:34 53.70212 19.80328 20197 ft 253 kts 81°
2026-04-21 16:34 53.70398 19.83275 20194 ft 253 kts 81°
2026-04-21 16:34 53.70583 19.86234 20194 ft 253 kts 81°
2026-04-21 16:35 53.70766 19.89188 20194 ft 253 kts 81°
2026-04-21 16:35 53.70951 19.92147 20191 ft 253 kts 81°
2026-04-21 16:35 53.71136 19.95101 20187 ft 253 kts 81°
2026-04-21 16:35 53.71319 19.98054 20188 ft 253 kts 81°
2026-04-21 16:36 53.71505 20.01010 20191 ft 253 kts 81°
2026-04-21 16:36 53.71690 20.03969 20185 ft 253 kts 81°
2026-04-21 16:36 53.71874 20.06926 20181 ft 253 kts 81°
2026-04-21 16:36 53.72055 20.09845 20181 ft 253 kts 81°
2026-04-21 16:37 53.72240 20.12792 20182 ft 253 kts 81°
2026-04-21 16:37 53.72426 20.15755 20180 ft 253 kts 81°
2026-04-21 16:37 53.72609 20.18716 20182 ft 253 kts 81°
2026-04-21 16:37 53.72793 20.21678 20183 ft 253 kts 81°
2026-04-21 16:38 53.72980 20.24637 20182 ft 254 kts 81°
2026-04-21 16:38 53.73165 20.27603 20177 ft 254 kts 81°
2026-04-21 16:38 53.73347 20.30569 20172 ft 254 kts 81°
2026-04-21 16:38 53.73532 20.33532 20176 ft 254 kts 81°
2026-04-21 16:39 53.73719 20.36496 20170 ft 254 kts 81°
2026-04-21 16:39 53.73904 20.39464 20168 ft 254 kts 81°
2026-04-21 16:39 53.74087 20.42432 20169 ft 254 kts 81°
2026-04-21 16:39 53.74272 20.45399 20165 ft 254 kts 81°
2026-04-21 16:40 53.74459 20.48372 20164 ft 254 kts 81°
2026-04-21 16:40 53.74644 20.51343 20160 ft 254 kts 81°
2026-04-21 16:40 53.74825 20.54277 20166 ft 254 kts 81°
2026-04-21 16:40 53.75013 20.57288 20162 ft 254 kts 81°
2026-04-21 16:41 53.75137 20.59258 20160 ft 255 kts 81°
2026-04-21 16:41 53.75383 20.63201 20153 ft 255 kts 81°
2026-04-21 16:41 53.75566 20.66178 20154 ft 255 kts 81°
2026-04-21 16:41 53.75753 20.69153 20154 ft 255 kts 81°
2026-04-21 16:42 53.75940 20.72135 20158 ft 255 kts 81°
2026-04-21 16:42 53.76124 20.75114 20156 ft 255 kts 81°
2026-04-21 16:42 53.76309 20.78099 20156 ft 255 kts 81°
2026-04-21 16:42 53.76496 20.81077 20160 ft 255 kts 81°
2026-04-21 16:43 53.76689 20.84055 20152 ft 255 kts 80°
2026-04-21 16:43 53.76930 20.87025 20154 ft 254 kts 77°
2026-04-21 16:43 53.77358 20.89912 20150 ft 253 kts 71°
2026-04-21 16:43 53.77865 20.92763 20152 ft 253 kts 71°
2026-04-21 16:44 53.78308 20.95647 20153 ft 254 kts 75°
2026-04-21 16:44 53.78686 20.98562 20155 ft 254 kts 74°
2026-04-21 16:44 53.79129 21.01445 20154 ft 253 kts 72°
2026-04-21 16:44 53.79593 21.04323 20156 ft 254 kts 73°
2026-04-21 16:45 53.80003 21.07222 20155 ft 254 kts 74°
2026-04-21 16:45 53.80415 21.10125 20157 ft 254 kts 73°
2026-04-21 16:45 53.80865 21.13014 20153 ft 254 kts 72°
2026-04-21 16:45 53.81304 21.15900 20158 ft 254 kts 73°
2026-04-21 16:46 53.81719 21.18808 20155 ft 254 kts 74°
2026-04-21 16:46 53.82145 21.21707 20155 ft 254 kts 73°
2026-04-21 16:46 53.82587 21.24598 20154 ft 254 kts 73°
2026-04-21 16:46 53.83018 21.27494 20152 ft 254 kts 73°
2026-04-21 16:47 53.83440 21.30399 20154 ft 254 kts 73°
2026-04-21 16:47 53.83868 21.33294 20155 ft 254 kts 73°
2026-04-21 16:47 53.84306 21.36194 20152 ft 254 kts 73°
2026-04-21 16:47 53.84735 21.39092 20155 ft 254 kts 73°
2026-04-21 16:48 53.85160 21.42000 20146 ft 254 kts 73°
2026-04-21 16:48 53.85591 21.44904 20151 ft 254 kts 73°
2026-04-21 16:48 53.86025 21.47804 20152 ft 254 kts 73°
2026-04-21 16:48 53.86454 21.50711 20151 ft 254 kts 73°
2026-04-21 16:49 53.86876 21.53583 20151 ft 254 kts 73°
2026-04-21 16:49 53.87308 21.56491 20148 ft 255 kts 73°
2026-04-21 16:49 53.87739 21.59396 20148 ft 254 kts 73°
2026-04-21 16:49 53.88169 21.62310 20144 ft 255 kts 73°
2026-04-21 16:50 53.88598 21.65215 20144 ft 255 kts 73°
2026-04-21 16:50 53.89030 21.68125 20147 ft 255 kts 73°
2026-04-21 16:50 53.89460 21.71038 20149 ft 255 kts 73°
2026-04-21 16:50 53.89888 21.73949 20148 ft 255 kts 73°
2026-04-21 16:51 53.90321 21.76865 20143 ft 255 kts 73°
2026-04-21 16:51 53.90751 21.79775 20142 ft 255 kts 73°
2026-04-21 16:51 53.91180 21.82688 20139 ft 255 kts 73°
2026-04-21 16:51 53.91610 21.85602 20147 ft 255 kts 73°
2026-04-21 16:52 53.92042 21.88514 20143 ft 255 kts 73°
2026-04-21 16:52 53.92471 21.91436 20143 ft 255 kts 73°
2026-04-21 16:52 53.92756 21.93368 20151 ft 255 kts 73°
2026-04-21 16:52 53.93334 21.97272 20137 ft 255 kts 73°
2026-04-21 16:53 53.93763 22.00186 20149 ft 255 kts 73°
2026-04-21 16:53 53.94194 22.03106 20154 ft 255 kts 73°
2026-04-21 16:53 53.94624 22.06022 20153 ft 255 kts 73°
2026-04-21 16:53 53.95053 22.08940 20157 ft 255 kts 73°
2026-04-21 16:54 53.95485 22.11865 20145 ft 255 kts 73°
2026-04-21 16:54 53.95909 22.14739 20147 ft 255 kts 73°
2026-04-21 16:54 53.96339 22.17659 20146 ft 255 kts 73°
2026-04-21 16:54 53.96767 22.20574 20150 ft 255 kts 73°
2026-04-21 16:55 53.97198 22.23489 20145 ft 255 kts 73°
2026-04-21 16:55 53.97629 22.26414 20144 ft 255 kts 73°
2026-04-21 16:55 53.98057 22.29333 20138 ft 255 kts 73°
2026-04-21 16:55 53.98486 22.32252 20142 ft 255 kts 73°
2026-04-21 16:56 53.98918 22.35171 20145 ft 255 kts 73°
2026-04-21 16:56 53.99347 22.38092 20143 ft 255 kts 73°
2026-04-21 16:56 53.99776 22.41015 20137 ft 255 kts 73°
2026-04-21 16:56 54.00205 22.43936 20133 ft 254 kts 73°
2026-04-21 16:57 54.00635 22.46849 20136 ft 255 kts 73°
2026-04-21 16:57 54.01064 22.49766 20135 ft 255 kts 73°
2026-04-21 16:57 54.01347 22.51702 20138 ft 254 kts 73°
2026-04-21 16:57 54.01872 22.55278 20132 ft 254 kts 73°
2026-04-21 16:58 54.02317 22.58298 20132 ft 254 kts 73°
2026-04-21 16:58 54.02607 22.60272 20133 ft 255 kts 73°
2026-04-21 16:58 54.03028 22.63149 20134 ft 254 kts 73°
2026-04-21 16:58 54.03458 22.66072 20133 ft 254 kts 73°
2026-04-21 16:59 54.03887 22.68992 20130 ft 254 kts 73°
2026-04-21 16:59 54.04315 22.71913 20134 ft 254 kts 73°
2026-04-21 16:59 54.04743 22.74832 20137 ft 254 kts 73°
2026-04-21 16:59 54.05269 22.77689 20128 ft 253 kts 65°
2026-04-21 17:00 54.05992 22.80414 20134 ft 252 kts 62°
2026-04-21 17:00 54.06761 22.83087 20133 ft 252 kts 61°
2026-04-21 17:00 54.07281 22.84853 20132 ft 251 kts 61°
2026-04-21 17:00 54.08332 22.88404 20129 ft 251 kts 61°
2026-04-21 17:01 54.09087 22.91092 20130 ft 252 kts 65°
2026-04-21 17:01 54.09682 22.93898 20131 ft 252 kts 69°
2026-04-21 17:01 54.10280 22.96707 20126 ft 251 kts 66°
2026-04-21 17:01 54.10973 22.99441 20128 ft 251 kts 64°
2026-04-21 17:02 54.11629 23.02208 20131 ft 252 kts 67°
2026-04-21 17:02 54.12226 23.04976 20127 ft 252 kts 67°
2026-04-21 17:02 54.12871 23.07747 20129 ft 252 kts 65°
2026-04-21 17:02 54.13542 23.10502 20128 ft 252 kts 65°
2026-04-21 17:03 54.14176 23.13280 20131 ft 252 kts 67°
2026-04-21 17:03 54.14801 23.16070 20129 ft 252 kts 66°
2026-04-21 17:03 54.15452 23.18839 20134 ft 251 kts 65°
2026-04-21 17:03 54.16107 23.21607 20132 ft 251 kts 66°
2026-04-21 17:04 54.16740 23.24386 20129 ft 251 kts 66°
2026-04-21 17:04 54.17374 23.27165 20132 ft 251 kts 66°
2026-04-21 17:04 54.18022 23.29933 20124 ft 251 kts 66°
2026-04-21 17:04 54.18668 23.32701 20128 ft 251 kts 66°
2026-04-21 17:05 54.19304 23.35484 20127 ft 251 kts 66°
2026-04-21 17:05 54.19939 23.38253 20128 ft 251 kts 66°
2026-04-21 17:05 54.20585 23.41023 20130 ft 251 kts 66°
2026-04-21 17:05 54.21226 23.43789 20128 ft 251 kts 66°
2026-04-21 17:06 54.21862 23.46568 20125 ft 251 kts 66°
2026-04-21 17:06 54.22499 23.49339 20124 ft 251 kts 66°
2026-04-21 17:06 54.23142 23.52109 20130 ft 251 kts 66°
2026-04-21 17:06 54.23782 23.54880 20126 ft 251 kts 66°
2026-04-21 17:07 54.24418 23.57652 20126 ft 250 kts 66°
2026-04-21 17:07 54.25055 23.60421 20124 ft 250 kts 66°
2026-04-21 17:07 54.25694 23.63183 20127 ft 250 kts 66°
2026-04-21 17:07 54.26331 23.65952 20127 ft 250 kts 66°
2026-04-21 17:08 54.26967 23.68722 20132 ft 250 kts 66°
2026-04-21 17:08 54.27603 23.71486 20124 ft 250 kts 66°
2026-04-21 17:08 54.28240 23.74251 20123 ft 250 kts 66°
2026-04-21 17:08 54.28877 23.77022 20124 ft 250 kts 66°
2026-04-21 17:09 54.30151 23.82567 20120 ft 250 kts 66°
2026-04-21 17:09 54.30780 23.85303 20117 ft 250 kts 66°
2026-04-21 17:09 54.31416 23.88077 20119 ft 250 kts 66°
2026-04-21 17:10 54.32051 23.90836 20117 ft 250 kts 66°
2026-04-21 17:10 54.32689 23.93614 20119 ft 250 kts 66°
2026-04-21 17:10 54.33323 23.96383 20117 ft 250 kts 66°
2026-04-21 17:10 54.33959 23.99158 20114 ft 250 kts 66°
2026-04-21 17:11 54.34596 24.01931 20111 ft 250 kts 66°
2026-04-21 17:11 54.35231 24.04700 20106 ft 250 kts 66°
2026-04-21 17:11 54.35864 24.07469 20113 ft 250 kts 66°
2026-04-21 17:11 54.36500 24.10241 20110 ft 249 kts 66°
2026-04-21 17:12 54.37102 24.12878 20003 ft 226 kts 65°
2026-04-21 17:12 54.37677 24.15363 19519 ft 223 kts 65°
2026-04-21 17:12 54.38244 24.17840 19045 ft 223 kts 66°
2026-04-21 17:12 54.38804 24.20318 18579 ft 223 kts 66°
2026-04-21 17:13 54.39368 24.22789 18070 ft 222 kts 66°
2026-04-21 17:13 54.39937 24.25255 17548 ft 222 kts 66°
2026-04-21 17:13 54.40502 24.27721 17036 ft 222 kts 66°
2026-04-21 17:13 54.41063 24.30191 16530 ft 221 kts 66°
2026-04-21 17:14 54.41603 24.32586 16034 ft 214 kts 66°
2026-04-21 17:14 54.42143 24.34934 15539 ft 209 kts 65°
2026-04-21 17:14 54.42675 24.37219 15045 ft 204 kts 66°
2026-04-21 17:14 54.43187 24.39461 14560 ft 199 kts 66°
2026-04-21 17:15 54.43679 24.41643 14090 ft 196 kts 66°
2026-04-21 17:15 54.44174 24.43820 13580 ft 193 kts 66°
2026-04-21 17:15 54.44666 24.45955 13050 ft 191 kts 66°
2026-04-21 17:15 54.45150 24.48071 12536 ft 190 kts 66°
2026-04-21 17:16 54.45629 24.50179 12031 ft 189 kts 66°
2026-04-21 17:16 54.46106 24.52280 11541 ft 188 kts 66°
2026-04-21 17:16 54.46585 24.54375 11051 ft 188 kts 66°
2026-04-21 17:16 54.47063 24.56468 10569 ft 188 kts 66°
2026-04-21 17:17 54.47540 24.58562 10101 ft 188 kts 66°
2026-04-21 17:17 54.48016 24.60656 9591 ft 188 kts 66°
2026-04-21 17:17 54.48491 24.62748 9075 ft 187 kts 66°
2026-04-21 17:17 54.48957 24.64795 8582 ft 186 kts 66°
2026-04-21 17:18 54.49430 24.66865 8064 ft 185 kts 66°
2026-04-21 17:18 54.49897 24.68921 7586 ft 184 kts 66°
2026-04-21 17:18 54.50362 24.70969 7116 ft 183 kts 66°
2026-04-21 17:18 54.50825 24.73002 6633 ft 182 kts 66°
2026-04-21 17:19 54.51285 24.75019 6132 ft 181 kts 66°
2026-04-21 17:19 54.51742 24.77034 5622 ft 180 kts 66°
2026-04-21 17:19 54.52195 24.79035 5133 ft 179 kts 66°
2026-04-21 17:19 54.52641 24.81038 4635 ft 179 kts 68°
2026-04-21 17:20 54.52631 24.83192 4078 ft 189 kts 104°
2026-04-21 17:20 54.51904 24.85107 3652 ft 189 kts 124°
2026-04-21 17:20 54.51186 24.86712 3959 ft 159 kts 122°
2026-04-21 17:20 54.50641 24.88391 4009 ft 168 kts 106°
2026-04-21 17:21 54.50259 24.90408 4008 ft 187 kts 102°
2026-04-21 17:21 54.49886 24.92637 4012 ft 199 kts 101°
2026-04-21 17:21 54.49516 24.94947 4013 ft 201 kts 101°
2026-04-21 17:21 54.49153 24.97282 4006 ft 203 kts 100°
2026-04-21 17:22 54.48913 24.98840 3914 ft 205 kts 100°
2026-04-21 17:22 54.48426 25.01997 3490 ft 204 kts 101°
2026-04-21 17:22 54.48064 25.04338 3139 ft 200 kts 101°
2026-04-21 17:22 54.47709 25.06621 2799 ft 197 kts 101°
2026-04-21 17:23 54.47365 25.08837 2678 ft 194 kts 100°
2026-04-21 17:23 54.47010 25.11067 2671 ft 190 kts 101°
2026-04-21 17:23 54.46661 25.13197 2670 ft 180 kts 101°
2026-04-21 17:23 54.46332 25.15222 2669 ft 172 kts 100°
2026-04-21 17:24 54.46257 25.17192 2632 ft 161 kts 71°
2026-04-21 17:24 54.46940 25.18568 2647 ft 153 kts 26°
2026-04-21 17:24 54.47927 25.19131 2681 ft 148 kts 15°
2026-04-21 17:24 54.48922 25.19551 2683 ft 148 kts 12°
2026-04-21 17:25 54.49956 25.19939 2705 ft 156 kts 14°
2026-04-21 17:25 54.51011 25.20394 2746 ft 157 kts 16°
2026-04-21 17:25 54.52074 25.20906 2741 ft 160 kts 17°
2026-04-21 17:25 54.53159 25.21477 2623 ft 169 kts 19°
2026-04-21 17:26 54.54268 25.22202 2368 ft 166 kts 24°
2026-04-21 17:26 54.55291 25.22953 2060 ft 154 kts 23°
2026-04-21 17:26 54.56281 25.23666 1812 ft 155 kts 24°
2026-04-21 17:26 54.57261 25.24377 1581 ft 149 kts 24°
2026-04-21 17:27 54.58173 25.24997 1432 ft 135 kts 20°
2026-04-21 17:27 54.59041 25.25550 1291 ft 134 kts 20°
2026-04-21 17:27 54.59918 25.26141 1160 ft 137 kts 21°
2026-04-21 17:27 54.60812 25.26792 973 ft 140 kts 23°
2026-04-21 17:28 54.61714 25.27426 784 ft 138 kts 21°
2026-04-21 17:28 54.62580 25.28008 628 ft 127 kts 21°
2026-04-21 17:28 54.63170 25.28410 606 ft 41 kts 22°
2026-04-21 17:28 54.63359 25.28536 609 ft 16 kts 17°
2026-04-21 17:29 54.63431 25.28483 614 ft 14 kts 303°
2026-04-21 17:29 54.63506 25.28401 623 ft 8 kts 349°
2026-04-21 17:29 54.63513 25.28399 619 ft 0 kts 349°
2026-04-21 17:30 54.63591 25.28398 616 ft 11 kts 12°
2026-04-21 17:30 54.63669 25.28442 621 ft 18 kts 18°
2026-04-21 17:30 54.63785 25.28528 631 ft 25 kts 21°
2026-04-21 17:31 54.63941 25.28629 638 ft 17 kts 20°
2026-04-21 17:31 54.64096 25.28695 646 ft 17 kts 336°
2026-04-21 17:31 54.64162 25.28576 645 ft 14 kts 354°
2026-04-21 17:31 54.64174 25.28574 645 ft 0 kts 355°